sat.trackr.live / text

‹ back to catalog

OMNI-L2

NORAD 52771 · 2022-057AR

PAYLOAD ACTIVE UNKNOWN

§ Identity

Operator
Country
US
Launch date
2022-05-25
Launch site
AFETR
Launch vehicle
Mass (kg)
RCS (m²)

External: N2YO · Heavens-Above · Gunter

§ Orbital elements

Epoch: 2026-09-20T02:05:14.044704Z

Period
97.21 min
Inclination
97.4619°
Eccentricity
0.0006998
Mean motion
14.81367634 rev/d
Perigee alt
620.1 km
Apogee alt
629.9 km
Semi-major
7,003.1 km
B*
7.8626e-5
RAAN
319.0306°
Arg perigee
25.6762°
Mean anomaly
334.4798°
Rev number
23,444

§ Raw data

OMNI-L21 52771U 22057AR  26263.08696811  .00000567  00000+0  78626-4 0  99962 52771  97.4619 319.0306 0006998  25.6762 334.4798 14.81367634234440

JSON: /api/v1/satellites/52771 · /tle

For live sub-satellite position, see the globe view (requires WebGL).

§ Visibility from observer

Set your observer location to see the next 7 days of passes ≥ 10°. The values pass through the URL so the page stays shareable.

No JS? Fill the form by hand. The geolocation button needs JavaScript.

§ Radio — SatNOGS DB

ModeDescriptionDownlinkUplink
FM UHF Unknown 401.050 MHz

1 transmitter · refreshed weekly from db.satnogs.org